Location: Malvern Link
(52.1333°N, 2.3000°W)
Time: 06:27:30
(UTC+00:00)

AO-92 - Pass Details

Date: 09 July 2022
Orbit: 470 x 481 km, 97.4° (Epoch: 07 August)

Event Time Altitude Azimuth Distance (km) Brightness Sun altitude
Exits shadow 22:24:32 14° 188° (S) 1,424 ? -11.8°
Maximum altitude 22:27:25 47° 260° (W) 646 ? -12.0°
Drops below altitude 10° 22:30:55 10° 336° (NNW) 1,677 ? -12.2°
Sets 22:33:03 0° 343° (NNW) 2,564 ? -12.4°
